Location: Bucquoy
(50.1391°N, 2.7097°E)
Time: 22:34:01
(UTC+00:00)

Gbstr 26 Del rocket - Pass Details

Date: 06 May 2021
Orbit: 493 x 1263 km, 51.8° (Epoch: 20 June)

Event Time Altitude Azimuth Distance (km) Brightness Sun altitude
Rises 02:13:57 0° 292° (WNW) 3,739 6.9 -15.8°
Reaches altitude 10° 02:17:11 10° 282° (WNW) 2,645 6.0 -15.4°
Maximum altitude 02:22:12 27° 228° (SW) 1,539 4.5 -14.9°
Drops below altitude 10° 02:26:27 10° 171° (S) 2,196 5.5 -14.5°
Enters shadow 02:27:02 - 168° (SSE) 2,373 5.7 -14.5°
Exits shadow 02:27:34 - 165° (SSE) 2,546 5.9 -14.4°
Sets 02:28:54 0° 159° (SSE) 2,992 6.3 -14.3°
